Flag for Germany Weather past 2 weeks in Langenhagen, Lower Saxony, Germany

Now
52 °F

Light rain. More clouds than sun.


Feels Like: 47 °F
Forecast: 45 / 51 °F
Wind: 13 mph from South

Location: Hannover

Current Time: Mar 28, 2015 at 5:33:19 PM

Latest Report: Mar 28, 2015 at 4:50 PM


Visibility: N/A

Pressure: 29.89 "Hg

Humidity: 58%

Dew point: 37 °F

Location of LangenhagenLocation

Historic Weather in Langenhagen — Graph

°F

Langenhagen temperature yesterday

Maximum temperature yesterday: 45 °F (at 8:50 AM)
Minimum temperature yesterday: 39 °F (at 10:20 PM)
Average temperature yesterday: 42 °F

Past Weeks' High & Low Weather Summary

 TemperatureHumidityPressure
High61 °F (Mar 18, 2:20 PM)100% (Mar 16, 6:20 AM)30.42 "Hg (Mar 16, 6:20 AM)
Low28 °F (Mar 20, 3:50 AM)36% (Mar 18, 2:20 PM)29.62 "Hg (Mar 25, 4:50 PM)
Average42 °F78%30.12 "Hg
* Reported Mar 13 4:20 PM — Mar 28 4:20 PM, Langenhagen, Weather by CustomWeather, © 2015

Note: Actual official high and low records may vary slightly from our data, if they occured in-between our weather recording intervals... More about our weather records

Advertising

Langenhagen weather history for previous 24 hours

 ConditionsComfort  
Time TempWeatherWind HumidityBarometerVisibility
4:20 PM
Sat, Mar 28
52 °FLight rain. More clouds than sun.10 mph54%29.92 "HgN/A
3:50 PM52 °FOvercast.12 mph50%29.92 "HgN/A
3:20 PM52 °FOvercast.12 mph50%29.95 "HgN/A
2:50 PM52 °FPartly sunny.13 mph54%29.95 "HgN/A
2:20 PM52 °FPartly sunny.9 mph50%29.98 "HgN/A
1:50 PM52 °FScattered clouds.12 mph50%29.98 "HgN/A
1:20 PM52 °FScattered clouds.10 mph54%30.01 "HgN/A
12:50 PM50 °FScattered clouds.13 mph58%30.04 "HgN/A
12:20 PM50 °FScattered clouds.12 mph58%30.07 "HgN/A
11:50 AM48 °FScattered clouds.8 mph58%30.07 "HgN/A
11:20 AM46 °FScattered clouds.9 mph62%30.09 "HgN/A
10:50 AM45 °FScattered clouds.9 mph66%30.09 "HgN/A
10:20 AM46 °FScattered clouds.7 mph71%30.09 "HgN/A
9:50 AM45 °FScattered clouds.7 mph76%30.12 "HgN/A
9:20 AM45 °FScattered clouds.8 mph76%30.12 "HgN/A
8:50 AM43 °FPartly sunny.7 mph81%30.15 "HgN/A
8:20 AM41 °FPartly sunny.8 mph87%30.15 "HgN/A
7:50 AM41 °FPartly sunny.5 mph87%30.15 "HgN/A
7:20 AM39 °FPartly sunny.5 mph93%30.15 "HgN/A
6:50 AM39 °FPartly sunny.5 mph93%30.15 "HgN/A
6:20 AM39 °FPartly sunny.2 mph93%30.15 "HgN/A
5:50 AM39 °FPassing clouds.3 mph93%30.18 "HgN/A
5:20 AM39 °FPassing clouds.6 mph93%30.15 "HgN/A
4:20 AM41 °FPassing clouds.5 mph87%30.15 "HgN/A
3:50 AM41 °FPassing clouds.5 mph87%30.15 "HgN/A
3:20 AM41 °FClear.5 mph87%30.15 "Hg10 mi
2:50 AM41 °FPassing clouds.5 mph87%30.15 "HgN/A
2:20 AM41 °FPassing clouds.8 mph87%30.15 "HgN/A
1:50 AM41 °FPassing clouds.7 mph87%30.15 "HgN/A
1:20 AM41 °FPassing clouds.8 mph87%30.15 "HgN/A
12:50 AM41 °FPassing clouds.7 mph87%30.15 "HgN/A
12:20 AM41 °FPassing clouds.8 mph87%30.15 "HgN/A
11:50 PM
Fri, Mar 27
41 °FPassing clouds.8 mph87%30.15 "HgN/A
11:20 PM41 °FPassing clouds.8 mph87%30.15 "HgN/A
10:50 PM39 °FClear.8 mph87%30.12 "Hg10 mi
10:20 PM39 °FPartly cloudy.12 mph93%30.12 "HgN/A
9:50 PM41 °FPassing clouds.14 mph87%30.12 "HgN/A
9:20 PM41 °FLight rain. Partly cloudy.13 mph93%30.12 "Hg4 mi
8:50 PM41 °FLight rain. Passing clouds.14 mph93%30.09 "Hg4 mi
8:20 PM41 °FLight rain. Partly cloudy.17 mph93%30.09 "Hg4 mi
7:50 PM41 °FLight rain. Passing clouds.14 mph93%30.07 "Hg4 mi
7:20 PM41 °FLight rain. Passing clouds.18 mph93%30.07 "HgN/A
6:50 PM43 °FPassing clouds.16 mph87%30.04 "HgN/A
6:20 PM43 °FPartly sunny.15 mph93%30.04 "Hg5 mi
5:50 PM43 °FSprinkles. Partly sunny.14 mph93%30.01 "Hg5 mi
5:20 PM43 °FSprinkles. Partly sunny.17 mph87%29.98 "Hg5 mi
Weather by CustomWeather, © 2015

See weather overviewHow to use our weather pages